Other Public Products
Issued by NWS Grand Forks, ND

Home | Current Version | Previous Version | Text Only | Print | Product List | Glossary Off
Versions: 1 2 3 4 5 6 7 8 9 10 11 12 13 14 15 16 17 18 19 20 21 22 23 24 25 26 27 28 29 30 31 32 33 34 35 36 37 38 39 40 41 42 43 44 45 46 47 48 49 50

000
FPUS83 KFGF 181910
OPUFGF
PRAIRIE TO PINES WEATHER ROUNDUP
NATIONAL WEATHER SERVICE EASTERN NORTH DAKOTA/GRAND FORKS ND
200 PM CDT THU SEP 18 2014

 **SATELLITE DATA USED TO AUGMENT SKY COVER AT AUTOMATED STATIONS**
 *****  WEATHER ACROSS EASTERN NORTH DAKOTA  *****

CITY           SKY/WX    TMP DP  RH WIND       PRES   REMARKS
GRAND FORKS    MOSUNNY   68  55  63 S15       29.89F
GRAND FORKS AF SUNNY     64  57  76 SE14      29.90F
GRAND CITY NWS   N/A     70 N/A N/A S21         N/A
BUXTON         NOT AVBL
DEVILS LAKE    SUNNY     73  54  49 S22G28    29.81F
FARGO          SUNNY     70  55  59 S16G22    29.91F
WAHPETON ARPT  CLEAR     68  52  56 SE12G21   29.94F
$$

 *****  WEATHER ACROSS CENTRAL AND WESTERN NORTH DAKOTA  *****

CITY           SKY/WX    TMP DP  RH WIND       PRES   REMARKS
JAMESTOWN      SUNNY     74  57  55 S14       29.84F
BISMARCK       MOSUNNY   78  61  55 S14       29.78F
MINOT          PTSUNNY   73  57  57 S21       29.71F
MINOT AFB      PTSUNNY   74  59  60 S18G25    29.70F
GARRISON         N/A     75  62  64 S14G23    29.74F
WILLISTON      PTSUNNY   81  54  39 SW8       29.66F
DICKINSON      MOSUNNY   78  58  49 S14       29.74F
HETTINGER      MOSUNNY   77  58  51 SE14      29.79F
$$

 *****  OTHER OBSERVATIONS NORTHEAST NORTH DAKOTA  *****

CITY           SKY/WX    TMP DP  RH WIND       PRES   REMARKS
WALHALLA         N/A     63  55  77 S14G21    29.85F
LANGDON        FAIR      73  54  49 S21G30    29.83F
CAVALIER       FAIR      61  54  77 SE15      29.87F
GRAFTON        FAIR      63  54  72 SE14G21   29.89F
CANDO          FAIR      73  54  49 S21G30    29.80F
FORT TOTTEN      N/A     74  56  52 S15       29.95
ROLLA          FAIR      73  52  46 S22G33    29.78F
RUGBY          FAIR      75  52  43 S18G30    29.75F
 ***** THE ABOVE OBSERVATIONS ARE NON NWS ARE NOT QUALITY
        CONTROLLED AND MAY MIS-REPORT RAIN FOR SNOW...
$$

 *****  OTHER OBSERVATIONS SOUTHEAST NORTH DAKOTA *****

CITY           SKY/WX    TMP DP  RH WIND       PRES   REMARKS
COOPERSTOWN    NOT AVBL
VALLEY CITY    FAIR      66  59  77 SE15      29.88F
OAKES            N/A     79  59  50 S15G21    29.88F
GWINNER        CLEAR     70  57  64 SE16      29.91F
BUFFALO        NOT AVBL
WYNDMERE         N/A     64  55  72 SE12        N/A
 ***** THE ABOVE OBSERVATIONS ARE NON NWS ARE NOT QUALITY
       CONTROLLED AND MAY MIS-REPORT RAIN FOR SNOW...
$$

  *****  WEATHER ACROSS NORTHERN MINNESOTA  *****

CITY           SKY/WX    TMP DP  RH WIND       PRES   REMARKS
FLAG ISLAND    CLOUDY    48  46  93 S15       29.98F
WARROAD        MOSUNNY   55  50  82 E9        29.98F
ROSEAU         SUNNY     61  54  77 E9        29.95F
HALLOCK        SUNNY     66  54  63 SE15G21   29.90F
THF RVR FALLS  SUNNY     70  54  56 S13       29.93F
HALSTAD          N/A     70  52  52 S15         N/A
FOSSTON        SUNNY     72  52  49 S10G18    29.95F
BAUDETTE       CLOUDY    51  46  83 SE8       30.01F
WASKISH        SUNNY     61  52  72 CALM      30.01F
CROOKSTON      SUNNY     70  55  60 S12       29.92F
$$
  *****  WEATHER ACROSS CENTRAL AND WEST MINNESOTA  *****

CITY           SKY/WX    TMP DP  RH WIND       PRES   REMARKS
BEMIDJI        SUNNY     62  48  60 SE10      30.00F
PARK RAPIDS    SUNNY     62  49  62 SE13      30.00F
WADENA         SUNNY     61  52  72 SE8       30.01F
DETROIT LAKES  SUNNY     64  52  63 S14       29.98F
MOORHEAD       SUNNY     70  57  64 S16       29.93F
FERGUS FALLS   SUNNY     64  52  63 SE14      29.96F
ELBOW LAKE     FAIR      67  56  67 SE15      29.97F
MORRIS MN      SUNNY     72  57  60 S18       29.96F
STAPLES        MOSUNNY   59  48  67 S8        30.03F
WHEATON        SUNNY     66  57  72 SE12      29.96F
$$
  *****  WEATHER ELSEWHERE ACROSS MINNESOTA  *****

CITY           SKY/WX    TMP DP  RH WIND       PRES   REMARKS
DULUTH         CLOUDY    48  41  76 SE10      30.12F
INTRNTL FALLS  MOSUNNY   57  45  64 SE8       30.04F
ELY            CLOUDY    50  39  66 SE10      30.10F
CLOQUET        CLOUDY    48  43  81 SE6       30.12F
BRAINERD       MOSUNNY   56  49  77 VRB5      30.06F
HIBBING        SUNNY     59  45  59 SE10      30.08F
ALEXANDRIA     SUNNY     66  55  67 SE12      30.02F
SAINT CLOUD    SUNNY     68  53  58 SE9       30.05F
MINNEAPOLIS    MOSUNNY   71  57  61 SE8       30.06F
$$

  *****  WEATHER ACROSS SOUTH DAKOTA  *****

CITY           SKY/WX    TMP DP  RH WIND       PRES   REMARKS
SIOUX FALLS    MOSUNNY   76  54  46 S18G25    29.98F
BROOKINGS      NOT AVBL
WATERTOWN      CLOUDY    73  59  61 S16G25    29.95S
HURON          MOSUNNY   77  61  57 S18G29    29.90F
SISSETON         N/A     67  58  72 S12       29.93F
ABERDEEN       PTSUNNY   77  62  59 S22G29    29.88F
MITCHELL       PTSUNNY   75  61  61 S17G26    29.93F
PIERRE         SUNNY     81  58  45 S23G30    29.81F
MOBRIDGE       SUNNY     80  61  52 S17G28    29.79F
RAPID CITY     MOSUNNY   80  55  42 SE12      29.82F
$$

  *****  SOME WEATHER IN NEARBY STATES *****

CITY           SKY/WX    TMP DP  RH WIND       PRES   REMARKS
GLASGOW MT     PTSUNNY   71  55  56 SE6       29.65R
GREAT FALLS MT CLOUDY    74  46  36 W14G25    29.78R
CHEYENNE WY    SUNNY     86  29  12 W10G16    30.06F
SCOTTSBLUFF NE SUNNY     80  52  37 SE8       29.92F
OMAHA NE       MOSUNNY   74  56  53 SE13      30.01F
DES MOINES IA  MOSUNNY   71  53  52 SE12      30.05F
DAVENPORT IA   SUNNY     71  49  45 E9        30.09F
CHICAGO IL     MOSUNNY   68  54  60 NE10      30.13F
EAU CLAIRE WI  NOT AVBL
LA CROSSE WI   SUNNY     67  54  63 E7        30.11F
$$

  *****  SOME NATIONAL WEATHER *****

CITY           SKY/WX    TMP DP  RH WIND       PRES   REMARKS
LA GUARDIA NY  PTSUNNY   75  46  35 NW6       29.98S
RALEIGH NC     MOSUNNY   77  58  51 E6        29.99F
ATLANTA GA     PTSUNNY   82  61  48 NE8       29.97F
NEW ORLEANS LA CLOUDY    87  71  58 S7        29.90F HX  93
OKLAHOMA CITY  MOSUNNY   83  66  56 S9G18     29.96F
ALBUQUERQUE NM MOSUNNY   77  49  37 CALM      30.05F
SALT LAKE CITY MOSUNNY   88  46  23 S21G26    29.87F
LOS ANGELES CA MOSUNNY   75  64  68 SW10      29.89S
BOISE ID       PTSUNNY   81  42  25 E8        29.82F
SEATTLE WA     CLOUDY    63  57  81 SW9       29.85R
$$

*** WEATHER ACROSS MANITOBA...SASKATCHEWAN AND ONTARIO ***
                ***ONTARIO***

CITY           SKY/WX    TMP DP  RH WIND       PRES   REMARKS
GERALDTON      PTSUNNY   48  28  46 W5        30.17F
THUNDER BAY    NOT AVBL
SIOUX LOOKOUT  MOSUNNY   50  37  62 S8        30.06F
TORONTO        MOSUNNY   55  43  62 N10       30.16F
BIG TROUT LK   SUNNY     48  27  43 S13G21    30.01F
PICKLE LAKE    MOSUNNY   50  30  46 S10G20    30.06F
DRYDEN         PTSUNNY   52  41  66 S8G17     30.04F
KENORA         CLOUDY    46  43  87 S14G20    30.01F
$$
                *** MANITOBA***

CITY           SKY/WX    TMP DP  RH WIND       PRES   REMARKS
BRANDON        CLOUDY    75  52  43 S16G25    29.72F
DAUPHIN        SUNNY     72  54  53 SE10G17   29.66F
ISLAND LAKE    CLOUDY    54  37  54 S12       29.84F
PILOT MOUND    NOT AVBL
THE PAS        CLOUDY    59  48  67 SE17      29.53F
THOMPSON       LGT RAIN  48  46  93 S14       29.60F
WINNIPEG       MOSUNNY   61  52  72 SE18      29.86F
LYNN LAKE      CLOUDY    50  45  81 SW10      29.50F
CHURCHILL      LGT RAIN  37  34  87 S25G37    29.59F
GILLAM         LGT RAIN  41  39  93 S10       29.72F
$$
                ***SASKATCHEWAN***

CITY           SKY/WX    TMP DP  RH WIND       PRES   REMARKS
ESTEVAN        CLOUDY    75  57  53 S12       29.65F
KINDERSLEY     PTSUNNY   75  50  41 W12G21    29.53S
LLOYDMINSTER   CLOUDY    61  50  67 N8        29.54S
PRINCE ALBERT  CLOUDY    63  52  67 NW5       29.50S
REGINA         PTSUNNY   73  57  56 S16       29.57F
YORKTON        SUNNY     70  54  56 S12G21    29.59F


USA.gov is the U.S. government's official web portal to all federal, state and local government web resources and services.